WE3C Weather Reports


time (UTC)temp
C
wind
direction
speed
KPH
gust
KPH
rain 1hr
cm
rain 24hr
cm
rain mn
cm
humidity
%
barometer
mb
20260505151520 23 221 0.0 0.0 0.00 0.00 0.00 47 1015.0
20260505124545 17 209 0.0 0.0 0.00 0.00 0.00 63 1016.3
20260505123041 16 360 0.0 0.0 0.00 0.00 0.00 66 1016.1
20260505121537 16 186 0.0 0.0 0.00 0.00 0.00 69 1015.9
20260505120039 15 360 0.0 0.0 0.00 0.00 0.00 71 1015.8
20260505114539 13 360 0.0 0.0 0.00 0.00 0.00 77 1015.7
20260505113034 13 360 0.0 0.0 0.00 0.00 0.00 79 1015.5
20260505111533 12 360 0.0 0.0 0.00 0.00 0.00 80 1015.6
20260505101532 11 186 0.0 0.0 0.00 0.00 0.00 80 1015.2
20260505100028 12 360 0.0 0.0 0.00 0.00 0.00 80 1015.1
20260505094528 11 194 0.0 0.0 0.00 0.00 0.00 80 1015.0
20260505093030 11 360 0.0 0.0 0.00 0.00 0.00 79 1014.9
20260505091527 12 190 0.0 0.0 0.00 0.00 0.00 79 1015.0
20260505090019 12 360 0.0 0.0 0.00 0.00 0.00 79 1015.1
20260505084518 13 360 0.0 0.0 0.00 0.00 0.00 78 1015.0
20260505083013 14 213 0.0 0.0 0.00 0.00 0.00 71 1015.0
20260505081512 14 208 0.0 0.0 0.00 0.00 0.00 69 1014.9
20260505080008 15 186 0.0 0.0 0.00 0.00 0.00 68 1014.8
20260505074507 15 172 0.0 0.0 0.00 0.00 0.00 66 1014.7
20260505073006 15 171 0.0 0.0 0.00 0.00 0.00 67 1014.9
20260505071505 15 360 0.0 0.0 0.00 0.00 0.00 67 1014.9
20260505070006 15 360 0.0 0.0 0.00 0.00 0.00 67 1015.1
20260505064504 15 360 0.0 0.0 0.00 0.00 0.00 66 1015.1
20260505063001 15 360 0.0 0.0 0.00 0.00 0.00 66 1015.1
20260505061607 15 360 0.0 0.0 0.00 0.00 0.00 64 1015.2
20260505060057 16 360 0.0 0.0 0.00 0.00 0.00 60 1015.1
20260505054557 16 360 0.0 0.0 0.00 0.00 0.00 58 1014.9
20260505053106 16 200 0.0 0.0 0.00 0.00 0.00 58 1015.0
20260505051654 16 192 0.0 0.0 0.00 0.00 0.00 57 1015.1
20260505041600 15 360 0.0 0.0 0.00 0.00 0.00 56 1015.0
20260505040045 15 360 0.0 0.0 0.00 0.00 0.00 56 1014.8
20260505034542 15 360 0.0 0.0 0.00 0.00 0.00 54 1014.8
20260505033104 16 360 0.0 0.0 0.00 0.00 0.00 53 1014.7
20260505031541 16 360 0.0 0.0 0.00 0.00 0.00 52 1014.8
20260505030042 16 155 0.0 0.0 0.00 0.00 0.00 51 1014.7
20260505024539 16 360 0.0 0.0 0.00 0.00 0.00 50 1014.9
20260505023048 17 145 0.0 0.0 0.00 0.00 0.00 49 1014.9
20260505021539 17 142 0.0 0.0 0.00 0.00 0.00 48 1015.2
20260505020045 17 165 0.0 0.0 0.00 0.00 0.00 47 1015.1
20260505014538 17 178 0.0 0.0 0.00 0.00 0.00 47 1015.1
20260505013038 17 188 0.0 0.0 0.00 0.00 0.00 47 1015.1
20260505011537 17 360 0.0 0.0 0.00 0.00 0.00 47 1015.0
20260505010041 17 360 0.0 0.0 0.00 0.00 0.00 47 1014.9
20260505004545 17 150 0.0 0.0 0.00 0.00 0.00 47 1014.8
20260505003038 17 158 0.0 0.0 0.00 0.00 0.00 47 1014.6
20260505001535 17 360 0.0 0.0 0.00 0.00 0.00 46 1014.5
20260505000035 18 156 0.0 0.0 0.00 0.00 0.00 44 1014.5
20260504234543 18 360 0.0 0.0 0.00 0.00 0.00 44 1014.5
20260504233032 18 360 0.0 0.0 0.00 0.00 0.00 42 1014.4
20260504231541 19 360 0.0 0.0 0.00 0.00 0.00 41 1014.3
20260504230029 19 187 0.0 0.0 0.00 0.00 0.00 40 1014.2
20260504224529 20 193 0.0 0.0 0.00 0.00 0.00 40 1014.2
20260504223028 20 360 0.0 0.0 0.00 0.00 0.00 39 1014.2
20260504221527 21 184 0.0 0.0 0.00 0.00 0.00 37 1014.2
20260504220026 21 360 0.0 0.0 0.00 0.00 0.00 37 1014.2
20260504214534 21 199 0.0 0.0 0.00 0.00 0.00 36 1014.3
20260504213029 21 218 0.0 0.0 0.00 0.00 0.00 36 1014.2
20260504211524 21 204 0.0 0.0 0.00 0.00 0.00 36 1014.5
20260504210019 21 209 0.0 0.0 0.00 0.00 0.00 37 1014.4
20260504204539 21 190 0.0 0.0 0.00 0.00 0.00 36 1014.7
20260504203017 21 219 0.0 0.0 0.00 0.00 0.00 35 1014.7
20260504201514 21 246 0.0 0.0 0.00 0.00 0.00 36 1014.8
20260504200014 21 212 0.0 0.0 0.00 0.00 0.00 36 1014.9
20260504194511 20 217 0.0 0.0 0.00 0.00 0.00 38 1015.1
20260504193010 21 242 0.0 0.0 0.00 0.00 0.00 36 1015.4
20260504191502 21 217 0.0 0.0 0.00 0.00 0.00 36 1015.5
20260504184605 21 191 0.0 0.0 0.00 0.00 0.00 37 1015.7
20260504183100 21 219 0.0 0.0 0.00 0.00 0.00 37 1016.1
20260504181554 20 198 0.0 0.0 0.00 0.00 0.00 37 1016.2
20260504180052 20 208 0.0 0.0 0.00 0.00 0.00 38 1016.5
20260504174550 20 241 0.0 0.0 0.00 0.00 0.00 38 1016.6
20260504173043 19 184 0.0 0.0 0.00 0.00 0.00 38 1016.8
20260504171546 19 205 0.0 0.0 0.00 0.00 0.00 38 1017.2